RH
5 6 7 9 9 8 9 12 13 16 18 20 20 20 21 21 22 21 21 23 24 21 16 10 9 7 5 8 7 6 8 8 3 2 4 5 6 8 10 11 8 8 6 5 9 16 24 29 31 33 35 36 37 36 37 49 64 73 87 93 88 95 95 87 92 90 85 88 92 76 63 84 86 65 56 55 54 52 53 52 54 57 54 63 70 75 81 82
4 5 6 7 8 7 9 12 15 17 19 20 21 21 22 21 21 20 20 21 23 20 14 10 9 8 10 14 18 21 22 23 17 10 9 10 12 14 14 12 9 7 5 7 8 12 23 28 29 33 34 35 34 34 43 58 68 75 89 94 85 90 90 80 86 86 84 86 87 78 67 75 76 69 61 56 58 52 52 55 56 60 61 66 74 81 84 84
4 4 4 6 7 6 8 12 15 18 20 21 21 21 21 21 20 19 19 19 21 20 14 10 10 10 13 18 22 25 24 27 26 18 15 15 15 15 13 10 8 5 5 7 6 12 24 29 32 32 32 34 32 38 55 67 71 71 77 89 85 85 87 80 80 79 77 78 81 82 77 75 67 66 64 56 60 55 52 59 65 72 68 68 78 81 83 85
4 4 4 5 6 6 7 12 15 17 20 21 21 22 21 20 20 19 18 18 19 20 15 12 12 11 13 16 20 21 22 27 24 19 18 15 13 11 10 8 5 4 4 5 7 17 28 30 30 27 31 33 27 41 62 69 69 68 73 83 82 83 90 84 74 73 75 72 74 79 77 74 64 63 64 53 60 61 52 55 61 69 68 70 78 79 81 82
4 4 4 4 5 6 6 11 15 17 19 21 21 21 21 20 19 18 17 17 18 19 17 13 12 12 13 15 18 16 23 32 26 21 21 18 13 8 8 7 4 4 4 5 8 22 30 28 27 28 32 27 27 49 63 62 62 69 78 81 79 82 89 86 74 72 78 75 73 78 75 70 64 63 61 52 58 60 50 52 54 57 60 65 73 76 77 76
4 4 4 4 4 5 5 9 13 16 18 20 21 20 21 20 19 18 17 16 17 18 17 14 13 13 14 14 17 17 24 32 25 22 25 23 16 8 8 5 3 4 4 8 13 25 27 21 21 23 25 18 28 51 53 55 60 70 80 80 82 81 84 86 77 73 78 78 77 77 70 64 61 60 61 55 52 49 46 51 53 55 58 60 66 71 72 72
4 3 4 3 3 4 4 6 12 16 18 19 20 20 20 19 18 17 16 15 15 17 17 15 14 13 14 14 16 18 23 23 19 22 26 23 16 9 8 4 4 4 6 14 20 25 19 15 15 12 16 10 22 49 52 55 60 73 86 87 90 83 84 86 74 75 77 72 73 71 67 65 62 60 61 56 46 44 47 51 54 57 61 63 65 67 66 66
9 4 3 3 3 4 4 5 8 14 17 19 20 20 21 19 18 16 15 15 14 16 16 15 15 13 14 14 16 20 20 17 17 23 23 19 14 8 7 4 4 4 11 20 20 19 12 12 11 8 14 6 25 60 59 58 63 76 91 91 95 88 87 87 76 81 80 71 71 70 70 70 66 65 62 53 44 46 48 50 56 60 63 66 65 65 65 65
16 10 5 3 3 3 3 4 5 11 15 18 19 20 21 19 17 16 15 14 14 15 15 14 15 13 14 14 17 22 20 14 18 23 20 16 11 7 6 4 4 7 16 18 13 13 11 12 11 10 12 7 37 64 54 60 69 78 91 92 96 95 91 90 85 86 83 78 75 73 75 70 64 63 59 50 46 47 48 51 58 62 65 66 64 63 65 66
17 16 12 6 3 3 3 3 4 7 12 16 18 20 21 18 17 16 15 14 14 14 15 14 14 14 15 14 19 25 20 13 18 22 19 15 8 5 5 3 4 8 13 12 12 14 12 12 12 10 8 15 49 62 55 69 74 79 91 93 95 96 92 89 88 87 85 83 76 75 80 72 61 61 60 51 46 47 48 51 55 60 64 64 65 63 63 64
15 16 16 11 5 3 3 3 3 4 8 14 17 18 18 17 17 17 15 14 13 13 14 14 14 14 14 14 19 24 18 14 18 20 19 15 8 5 8 8 7 11 12 11 14 14 12 12 11 10 5 24 58 67 71 78 78 85 89 92 95 91 90 87 88 90 89 88 81 75 75 73 65 65 67 53 45 48 48 51 52 54 57 58 61 61 62 63
18 14 15 15 10 4 2 3 3 3 6 10 13 15 16 17 17 17 15 14 13 13 13 13 13 13 13 14 17 20 16 15 18 18 18 15 10 10 14 12 9 13 14 13 15 12 13 12 9 10 4 25 62 73 80 78 76 85 84 92 97 89 93 94 94 91 86 86 84 76 74 78 77 72 68 53 46 49 47 50 51 50 51 52 55 56 60 60
20 18 14 14 13 8 3 2 3 2 4 7 10 13 15 17 17 16 15 14 13 13 13 13 13 12 15 17 16 20 20 17 18 18 18 15 14 15 15 14 10 12 13 12 14 11 12 11 7 11 3 18 54 66 72 73 75 83 81 90 97 93 97 97 94 88 82 81 76 78 83 86 83 75 67 53 47 48 48 50 49 49 50 51 52 52 56 57
16 19 17 13 13 11 5 2 2 3 4 7 11 14 15 16 16 15 15 14 13 13 13 12 12 13 18 19 17 21 22 18 18 17 17 16 16 16 16 16 12 10 11 9 11 11 11 10 7 8 5 21 50 63 70 72 79 87 79 82 93 95 92 90 92 90 85 81 73 80 92 89 79 73 66 53 48 48 48 49 48 48 50 50 50 51 54 56
14 14 18 16 13 12 7 2 2 3 5 9 12 14 15 15 15 15 14 15 14 12 12 12 13 16 19 19 18 22 21 17 16 14 16 16 15 16 16 16 13 11 12 9 8 10 9 8 7 5 16 41 55 65 76 70 75 83 71 73 89 92 90 88 90 91 87 83 79 81 86 84 74 71 68 55 46 47 47 48 48 48 49 49 49 50 53 56
19 12 13 17 15 12 9 4 2 4 8 12 15 15 17 18 18 17 15 14 13 12 13 14 15 16 20 21 19 20 19 15 14 14 15 15 15 15 14 15 15 13 12 11 8 8 7 7 7 3 18 44 48 60 78 71 73 77 67 75 88 93 97 91 84 86 90 86 83 84 82 78 71 69 69 59 46 45 48 46 47 48 49 50 52 54 56 59
27 19 11 12 15 13 9 4 2 5 10 14 17 17 18 20 19 19 19 15 15 17 18 20 20 19 20 19 16 17 17 14 14 15 15 15 15 13 14 14 13 13 12 11 8 8 7 5 7 6 13 27 31 56 82 80 80 77 73 82 86 89 96 93 84 83 89 85 82 91 88 78 77 76 72 64 50 45 47 45 48 51 51 53 55 57 59 62
30 26 16 10 13 14 10 5 2 7 13 16 17 17 18 19 18 20 22 19 19 22 24 28 26 22 20 15 15 17 16 14 14 14 13 13 13 11 13 12 11 13 10 9 7 7 7 4 8 11 13 18 24 52 76 76 76 73 74 81 80 84 90 89 86 84 90 88 85 95 94 83 83 83 77 68 54 48 49 46 49 52 53 55 57 59 60 62
30 29 24 13 10 14 12 5 3 8 14 17 15 15 18 17 16 19 20 19 20 21 23 26 23 21 20 15 15 16 14 13 12 12 11 11 11 10 11 10 10 10 7 7 6 5 6 5 9 12 14 16 19 36 48 50 61 66 71 79 78 81 85 84 88 89 88 89 91 95 94 88 84 83 84 76 59 53 55 51 50 52 54 57 57 58 59 60
32 29 27 19 10 11 13 6 2 7 14 16 14 15 16 16 18 21 18 17 18 18 18 18 18 17 18 15 14 15 13 12 12 11 10 10 10 9 9 10 10 10 7 7 6 5 5 7 11 12 13 14 15 21 23 27 44 56 66 77 77 76 77 80 91 92 82 83 92 93 91 90 86 85 87 82 68 63 64 59 54 53 55 58 58 57 58 59
34 30 27 24 14 9 12 8 2 6 13 15 15 15 15 17 22 23 19 16 13 14 15 14 15 15 14 14 14 14 11 10 12 10 9 10 10 9 9 11 11 12 10 7 6 7 7 9 10 10 11 12 13 16 16 19 27 40 62 75 76 76 76 80 93 93 79 76 87 93 93 89 85 84 84 86 84 75 70 65 59 56 55 57 58 58 58 58
29 32 29 25 18 11 11 9 3 5 12 14 14 15 16 18 20 21 21 20 14 11 13 13 14 14 12 12 14 15 13 11 11 10 10 10 9 9 10 12 13 14 12 8 8 11 10 11 9 8 10 10 12 13 15 17 17 30 61 75 73 78 78 78 91 94 79 73 85 94 94 90 87 88 86 88 89 79 69 66 61 56 56 58 58 58 58 58
20 27 29 27 23 13 10 10 4 3 9 13 15 15 15 16 16 17 20 23 19 11 10 13 12 11 11 12 13 15 16 13 11 10 10 9 9 9 10 12 13 12 11 9 10 12 11 10 8 7 9 9 11 12 12 15 19 35 62 73 74 79 75 69 81 95 86 77 87 95 94 92 90 91 89 84 85 82 72 69 65 58 55 57 58 58 56 56
16 19 24 27 25 17 12 10 4 4 8 12 16 16 14 15 16 16 18 23 25 16 11 12 11 10 11 12 11 14 15 13 11 10 9 9 9 9 9 12 12 12 12 10 10 10 10 9 8 7 9 10 11 11 13 16 23 39 57 67 73 76 75 75 83 93 90 81 86 92 91 94 91 87 87 84 85 87 79 74 71 63 58 56 58 59 56 55
16 15 19 22 25 21 12 9 6 6 10 13 16 16 15 15 15 16 18 25 29 22 14 11 12 11 10 11 11 11 13 11 10 10 9 9 9 10 11 10 11 14 14 11 10 10 10 7 7 9 10 12 13 12 15 15 18 32 46 55 61 67 78 89 91 90 95 92 87 83 78 86 95 89 86 87 90 90 86 84 78 67 63 60 59 60 57 56
17 16 15 16 23 21 15 14 12 8 11 13 14 17 17 15 16 15 21 38 40 26 15 12 12 12 9 11 10 10 12 11 10 10 9 8 8 9 11 11 12 14 13 12 12 12 11 8 7 10 10 12 12 10 12 12 13 19 26 38 53 68 83 92 86 84 96 95 83 77 68 72 91 90 86 89 91 91 88 90 87 76 70 66 62 60 58 58
20 19 15 15 18 19 21 19 13 10 10 10 12 16 16 14 15 12 24 50 48 26 15 12 10 9 8 9 9 11 12 11 8 9 10 9 8 8 11 14 12 11 11 12 14 12 10 9 8 8 10 11 9 9 11 11 13 9 14 43 63 71 82 84 78 80 91 88 80 82 72 68 84 88 89 92 89 90 91 89 91 86 79 72 66 62 58 58
24 22 19 17 14 17 23 20 13 11 9 8 10 14 15 15 14 16 35 49 34 16 13 11 8 7 7 8 10 10 9 10 9 9 9 8 9 8 10 13 12 13 13 12 16 14 9 8 7 8 9 9 9 11 10 9 11 7 20 55 64 63 75 76 76 81 81 77 82 89 79 73 87 92 94 97 90 89 90 86 86 88 85 77 68 65 61 58
29 29 26 21 16 16 21 22 16 11 10 9 7 12 15 13 12 24 46 44 20 12 12 8 8 7 6 8 9 9 8 9 9 9 9 8 9 9 10 12 11 12 11 11 16 14 8 8 8 8 8 9 11 11 10 8 8 8 27 56 60 63 76 73 76 77 63 62 73 84 84 77 82 94 98 96 91 86 82 79 80 81 83 80 72 66 62 60
32 33 32 27 21 15 18 23 17 10 12 9 6 13 11 14 28 36 41 36 20 14 11 7 9 7 7 9 8 9 8 8 10 9 9 8 9 9 9 10 9 13 16 15 15 13 10 8 10 10 7 9 11 9 10 7 6 10 23 47 54 56 66 71 75 68 54 59 65 72 82 69 61 84 100 94 90 87 78 73 76 78 80 80 74 67 63 60
35 34 34 31 23 15 17 20 17 14 16 11 9 10 6 20 47 46 30 24 20 16 10 8 10 7 7 9 8 8 8 9 10 10 10 10 10 10 10 11 12 19 30 26 15 15 15 10 11 10 5 8 7 6 9 8 11 13 15 36 46 43 60 70 63 55 51 53 61 75 82 63 52 71 88 87 84 86 82 74 74 77 78 78 75 69 64 60
35 33 33 30 22 15 16 20 21 17 17 16 8 8 17 28 37 36 28 22 20 17 10 8 10 8 8 8 8 9 8 9 10 11 12 11 12 13 11 17 19 20 31 30 17 17 19 13 12 10 6 9 6 6 11 12 16 15 15 34 37 33 54 64 56 59 56 45 58 80 76 64 68 70 70 74 72 76 81 75 70 71 71 74 74 69 65 61
34 32 28 24 19 14 16 23 22 13 15 19 10 16 38 41 32 33 30 21 18 15 10 10 9 9 9 8 9 9 8 10 9 10 12 11 13 15 12 17 20 16 21 25 19 20 22 17 13 9 8 9 8 11 12 13 18 16 17 27 28 30 38 43 50 56 52 55 69 76 63 63 76 68 62 69 68 70 76 73 69 68 66 66 70 69 66 63
30 28 22 19 17 15 21 24 18 12 14 14 15 26 36 35 37 41 32 23 19 14 12 14 11 9 9 9 10 10 8 9 9 9 12 12 13 16 15 15 15 15 16 19 20 22 24 23 17 11 10 10 11 14 14 18 21 19 20 20 26 42 39 35 51 51 49 68 80 68 55 63 70 60 62 70 65 66 70 70 70 68 66 66 69 73 70 67
24 21 19 19 19 19 24 21 14 12 10 13 29 40 34 31 37 39 32 24 18 15 15 14 11 10 9 10 11 9 7 8 10 10 11 13 14 16 17 14 14 15 15 18 22 20 21 23 18 13 10 9 10 12 15 22 23 23 29 24 23 39 46 45 54 60 60 66 74 69 58 67 74 62 63 70 64 63 63 65 69 69 70 73 74 78 75 70
19 19 23 24 21 20 20 16 11 10 12 20 33 35 33 34 31 27 26 20 14 16 16 13 12 10 9 11 12 10 8 8 10 11 11 12 13 14 15 13 15 14 13 19 21 19 19 18 15 14 12 11 11 12 15 19 24 32 35 30 25 32 47 49 46 59 63 50 60 71 64 72 77 62 63 72 69 69 68 68 71 70 73 76 76 77 76 72
16 20 29 27 22 21 18 15 11 10 13 19 29 37 38 32 23 22 23 16 13 15 14 17 17 11 10 12 13 12 10 9 9 10 14 13 11 13 13 11 12 12 12 15 14 16 20 16 13 14 13 13 14 15 19 18 22 35 35 32 33 32 42 51 52 64 66 50 57 70 69 75 76 67 75 81 75 75 77 77 73 67 69 74 76 75 74 73
16 21 30 27 26 26 18 14 13 13 15 18 36 54 48 29 19 18 16 10 11 13 13 19 19 12 11 13 14 13 10 11 11 12 15 15 12 12 12 10 11 11 10 12 12 15 19 16 14 16 14 14 16 19 24 22 20 28 32 32 36 40 45 50 51 58 60 56 61 68 71 75 76 81 87 85 83 82 81 83 80 74 72 71 73 75 73 72
17 25 32 25 29 31 17 10 11 14 15 21 39 44 30 23 20 14 11 10 11 12 13 18 17 14 14 13 13 13 11 11 13 13 15 14 13 11 11 11 10 10 10 11 12 16 22 20 16 17 14 11 20 27 28 27 24 24 28 29 35 50 58 53 50 56 59 64 69 67 69 74 79 90 92 86 89 89 83 84 83 80 76 70 70 73 73 72
20 32 38 29 31 30 16 9 13 16 17 26 43 37 18 16 15 8 9 10 9 11 14 17 15 16 17 13 13 13 12 13 12 13 13 13 14 12 10 12 11 12 14 12 16 22 26 24 18 20 20 16 22 27 28 31 29 29 33 33 34 44 48 46 54 64 66 70 74 68 67 74 78 86 90 87 89 89 84 85 84 76 69 67 69 68 69 73
23 34 40 34 31 23 14 13 18 24 28 29 34 28 15 12 12 10 10 9 9 10 11 13 13 14 15 14 15 12 12 14 12 12 13 12 14 12 9 11 11 12 14 15 19 22 22 24 24 23 21 19 21 22 24 29 30 34 37 36 40 43 46 51 59 69 72 71 72 69 67 72 74 79 86 86 87 87 82 81 80 72 64 65 69 70 69 67
27 33 33 32 28 19 15 21 23 23 25 24 20 15 13 13 14 12 8 8 11 10 10 12 12 14 14 13 15 13 13 15 14 14 14 11 14 14 10 8 8 11 16 17 17 20 30 40 37 29 25 22 20 21 23 25 30 34 33 37 45 46 54 65 63 63 67 68 71 71 68 72 76 80 84 84 83 80 76 77 75 70 68 66 69 80 79 66
33 34 32 31 29 20 20 31 34 28 23 20 16 13 13 13 13 12 10 10 12 10 12 14 13 14 15 12 12 12 11 13 14 14 14 13 14 12 10 9 8 13 18 19 17 20 33 43 39 43 53 44 27 25 27 28 34 37 34 40 44 41 52 66 68 69 68 67 71 69 68 75 79 84 86 80 77 72 72 79 76 69 71 67 67 81 87 77
34 35 34 36 35 26 24 32 36 37 38 31 24 23 23 18 13 12 12 12 12 12 13 14 13 12 13 11 11 12 11 12 14 14 14 15 12 10 11 10 9 15 16 16 18 16 21 37 42 44 52 45 31 29 30 30 36 41 42 44 43 47 54 54 62 74 68 63 67 63 69 79 77 82 87 82 80 76 70 76 77 70 70 67 66 74 82 84
41 45 39 37 37 31 30 34 34 37 43 41 39 40 34 25 19 16 14 12 12 13 13 14 13 11 12 12 11 12 12 12 12 13 14 14 11 10 10 9 11 15 13 11 14 17 24 44 58 49 37 40 47 48 44 37 32 34 40 41 39 46 49 44 54 66 60 60 66 65 71 76 68 67 72 75 81 77 70 75 80 75 71 69 68 70 78 85
53 63 56 47 41 34 36 42 43 46 50 51 53 47 35 32 29 21 17 15 13 14 13 14 14 11 12 12 12 13 12 10 11 16 17 14 12 12 10 12 12 9 13 12 9 22 34 40 57 59 39 39 58 61 53 43 27 21 29 34 36 44 49 51 58 61 59 63 68 74 73 60 54 57 59 67 77 77 76 77 76 74 71 69 68 70 80 86
57 68 68 66 59 50 47 46 47 54 53 51 53 44 36 38 32 22 20 17 14 16 15 14 14 13 13 13 14 15 14 13 12 14 17 16 13 13 12 15 14 9 17 16 8 25 34 23 35 52 37 33 49 51 43 35 24 20 22 25 35 48 51 49 51 57 63 62 63 81 79 53 52 65 63 67 76 77 78 72 65 68 68 66 69 73 79 83
58 62 64 69 72 69 62 53 52 56 49 47 53 47 39 41 36 29 28 22 18 18 16 17 21 22 21 16 14 18 20 19 17 15 17 17 14 17 15 14 18 21 22 17 14 28 33 20 23 31 27 28 33 31 29 26 23 23 21 21 33 49 49 43 49 61 63 53 55 76 76 53 55 72 70 67 68 63 61 61 62 67 67 70 76 76 77 82
60 65 64 64 68 68 60 52 52 54 49 50 58 53 45 46 42 35 31 28 27 24 18 22 28 28 27 23 21 26 25 20 20 21 21 18 16 21 20 14 19 23 18 13 17 24 26 30 32 22 17 25 27 23 23 21 20 21 22 22 30 46 49 40 49 62 54 48 62 77 71 54 59 78 80 70 64 59 61 70 74 73 75 80 82 79 80 87
63 71 70 67 68 63 55 51 51 54 53 52 55 52 46 48 46 38 33 29 30 30 24 26 30 27 28 30 30 31 27 22 21 21 22 22 22 25 25 20 19 18 14 13 18 19 20 34 48 36 21 26 31 26 22 23 23 24 31 33 32 43 49 38 45 58 50 51 71 80 72 62 67 84 85 73 71 73 77 83 84 82 85 87 87 87 89 93
59 65 67 73 78 68 56 54 52 55 61 60 58 55 50 49 46 40 36 28 26 31 28 27 31 32 32 34 32 28 25 25 23 20 19 19 19 20 20 18 17 17 16 16 18 22 24 32 47 44 29 26 29 24 26 35 34 32 40 40 34 42 45 36 44 56 51 58 77 78 68 64 71 86 88 82 82 83 84 89 90 91 92 88 88 94 95 95
46 54 63 74 78 68 63 67 61 57 63 62 59 55 50 47 44 41 41 35 26 28 30 28 32 37 38 34 32 28 24 22 21 17 17 15 13 15 14 13 15 15 18 21 21 28 35 29 32 40 34 29 32 33 39 44 38 37 44 39 33 43 45 38 48 61 62 66 73 70 64 65 78 91 90 86 89 88 90 94 92 91 94 93 94 98 99 95
Wind_Speed
11 10 10 10 9 8 7 5 4 3 3 4 5 7 8 10 11 13 14 15 15 15 13 11 10 8 7 6 6 6 5 4 1 2 4 5 7 8 7 6 5 6 7 7 9 9 10 9 7 5 4 5 6 8 7 6 6 4 2 2 1 1 3 3 4 4 3 1 2 4 7 5 0 3 2 5 11 18 16 9 12 10 10 19 19 24 26 22
12 11 11 10 10 8 7 5 3 2 3 4 6 7 8 10 11 13 14 15 15 14 13 11 10 8 7 7 7 6 7 6 2 2 3 4 5 6 6 7 7 7 7 6 7 8 10 7 5 4 4 6 6 5 5 6 8 4 2 2 2 3 4 6 6 6 4 5 5 6 9 9 5 2 1 6 10 13 11 10 16 17 17 18 22 28 26 25
13 12 11 11 10 9 6 4 3 3 4 5 6 8 9 10 12 13 14 15 15 14 12 11 10 9 7 6 6 7 8 6 1 4 5 3 3 4 6 8 8 9 6 5 6 8 9 5 4 5 6 8 8 8 7 6 7 5 2 2 4 4 4 9 12 10 7 10 8 5 7 8 8 4 3 9 11 11 11 12 17 21 24 25 28 29 27 27
13 13 12 11 10 9 7 5 3 3 4 5 7 8 9 11 12 13 14 14 14 13 12 10 10 9 7 6 6 8 9 4 2 4 5 3 0 3 5 7 9 8 6 5 7 9 8 5 4 6 7 8 7 9 8 8 8 3 4 2 4 5 3 9 15 13 10 12 10 6 7 5 6 7 5 14 11 5 13 20 23 26 31 32 31 31 29 27
14 13 13 12 10 9 7 5 4 3 4 5 7 8 9 11 12 13 14 14 13 12 12 10 9 8 7 6 7 9 8 3 1 2 4 5 3 2 5 8 10 8 7 7 8 9 6 4 5 6 6 5 3 7 7 13 10 3 2 1 4 8 3 7 13 14 11 10 9 6 5 3 3 6 7 15 10 7 19 25 27 32 34 34 34 32 29 27
13 13 12 12 11 10 7 5 4 4 5 6 7 8 10 11 12 13 13 13 12 11 11 9 8 8 8 8 10 10 5 1 4 3 2 5 5 3 5 9 10 8 8 8 8 8 5 4 5 5 5 4 6 6 7 17 13 2 0 2 4 5 4 6 12 13 11 11 9 5 3 3 3 4 4 10 12 17 26 26 28 32 33 34 33 31 29 27
13 13 12 12 11 10 9 6 5 5 5 6 7 8 10 11 12 13 13 13 11 11 10 8 7 7 9 10 11 10 7 5 7 4 2 5 6 4 5 9 10 9 9 9 9 6 3 3 6 6 3 2 5 5 8 16 11 2 2 2 5 3 5 8 12 12 11 13 11 5 3 2 2 2 1 3 13 21 27 27 29 32 32 32 32 30 28 25
13 12 12 12 11 11 10 7 6 6 6 7 8 9 10 11 12 13 13 12 11 10 9 8 7 8 10 11 12 11 8 8 5 2 3 5 5 3 5 9 10 10 9 9 7 3 2 4 7 5 2 3 1 4 13 13 5 2 3 3 4 3 5 8 11 11 11 11 8 4 3 2 3 2 3 5 17 23 28 29 29 32 32 32 31 29 27 25
14 13 12 11 11 11 10 8 7 6 7 7 8 9 10 11 12 12 12 12 11 10 9 9 9 10 10 11 13 9 6 8 4 1 5 6 2 4 7 10 11 10 10 8 5 0 4 5 7 6 5 5 3 7 13 8 1 3 6 6 5 3 3 6 7 6 7 6 5 4 3 3 4 4 2 12 23 26 30 31 30 32 32 31 30 28 27 26
14 13 13 11 11 11 10 9 8 7 8 8 8 9 10 11 12 12 12 11 10 10 10 10 11 11 11 13 10 4 6 7 3 1 4 7 1 5 8 10 10 9 9 7 3 3 5 5 9 11 7 2 5 4 1 3 4 10 12 9 7 5 4 4 3 3 2 2 2 4 3 4 4 5 2 13 26 29 30 31 31 32 31 30 29 27 27 25
14 14 13 12 11 11 10 10 9 8 8 8 9 10 10 11 11 11 11 10 10 9 10 10 12 12 12 14 9 4 6 6 2 3 3 6 1 7 7 9 9 7 8 7 1 3 4 6 11 10 4 0 4 6 7 7 13 18 16 10 7 6 7 5 4 10 10 7 7 3 4 4 5 4 0 13 27 30 31 30 31 32 31 29 27 27 27 26
15 14 14 13 12 11 11 10 10 9 8 9 10 10 10 11 10 11 10 10 9 9 9 10 12 13 13 15 10 6 6 5 3 4 2 5 4 7 6 6 7 5 5 3 1 3 3 6 9 8 3 2 3 4 7 14 18 15 9 6 4 3 6 7 5 8 8 1 8 3 5 5 3 2 1 17 27 30 31 30 31 31 30 27 25 26 27 25
16 15 14 14 13 12 11 11 10 10 9 8 9 10 11 11 11 10 9 9 9 9 10 10 12 14 13 12 8 6 8 6 3 5 2 2 6 6 4 4 5 5 4 2 1 2 2 4 7 7 3 2 3 4 10 16 16 7 1 3 4 2 3 6 3 2 4 4 5 2 4 2 6 5 3 20 27 28 29 28 31 29 26 25 23 25 26 25
16 15 15 14 14 13 12 11 11 10 9 8 9 10 11 11 11 10 9 9 10 10 10 11 13 12 12 11 8 8 8 7 5 5 2 2 4 4 4 4 4 4 2 2 1 1 1 4 6 6 2 3 8 11 11 9 7 3 0 1 3 3 0 3 5 7 4 2 3 3 4 4 9 6 4 16 26 27 26 26 28 24 22 23 23 25 26 26
16 16 15 15 15 14 13 12 11 10 9 8 8 9 11 11 11 11 10 10 10 11 11 12 12 11 12 12 6 5 7 6 4 4 3 1 2 3 3 4 3 3 1 1 0 1 3 5 6 3 4 10 14 11 5 1 1 2 1 2 2 3 1 1 4 8 3 2 2 3 4 5 8 5 3 10 25 28 24 23 23 20 21 23 24 26 27 27
17 16 15 15 15 14 13 12 11 10 8 7 7 8 10 11 11 11 11 11 11 10 11 11 12 10 9 8 4 5 7 5 3 5 4 2 1 1 0 3 5 5 4 3 2 3 5 6 4 0 7 11 9 5 3 2 3 2 1 1 1 3 1 1 2 7 5 1 0 3 4 4 4 5 3 5 22 27 21 19 19 20 23 25 27 28 27 26
18 17 16 15 15 15 14 12 11 9 7 6 6 7 9 9 9 10 9 8 8 10 12 12 12 10 7 6 5 5 7 7 4 6 6 4 2 1 2 4 4 6 6 5 5 6 5 4 2 1 3 4 3 4 4 2 4 2 2 1 1 2 2 1 1 5 5 1 1 2 2 4 3 4 7 5 16 25 20 19 20 22 25 26 27 27 27 27
20 18 17 16 15 15 14 12 10 7 4 5 7 8 8 8 7 6 6 8 10 11 12 9 5 5 5 5 6 7 6 8 7 6 6 5 4 4 5 5 3 5 5 4 5 5 4 3 1 0 1 1 2 5 3 3 4 3 2 1 2 2 2 3 2 4 6 1 1 2 2 5 6 1 7 7 11 19 20 21 22 23 25 26 26 26 27 27
21 20 18 16 15 14 14 12 9 5 1 3 8 8 7 9 6 2 9 14 13 8 6 5 4 4 6 10 12 12 8 8 7 7 6 6 5 5 6 5 4 3 3 1 3 2 2 2 3 0 2 3 5 6 6 6 6 5 5 3 3 3 2 3 2 3 8 4 2 4 2 4 5 4 4 7 9 13 16 19 20 22 24 24 24 26 27 27
23 21 19 17 14 14 13 11 9 4 2 2 8 7 8 12 6 3 15 21 14 9 10 12 13 14 15 16 14 10 7 9 9 7 5 4 5 5 6 5 3 1 3 3 2 2 2 1 2 5 6 6 7 8 7 5 5 5 5 3 4 4 2 2 2 2 7 5 2 5 4 4 6 5 0 5 8 8 10 13 16 19 23 24 23 25 26 26
24 23 20 18 14 13 13 11 8 4 3 3 9 9 10 13 6 6 18 19 13 12 15 16 16 17 17 15 9 5 6 9 11 8 5 6 6 3 4 4 1 1 2 2 1 1 3 2 6 8 8 7 6 7 6 4 5 4 4 4 4 3 2 1 2 4 6 3 1 3 4 6 6 5 3 3 6 5 8 10 12 17 22 24 23 25 27 26
24 23 22 19 15 13 12 11 8 4 4 3 9 11 12 12 8 7 11 12 15 14 15 17 16 16 16 12 6 6 8 8 10 10 8 9 8 6 4 3 3 1 2 2 2 3 2 3 10 11 7 4 4 3 4 4 4 4 3 4 4 3 1 2 2 4 3 1 2 3 5 6 6 5 5 3 6 8 13 12 12 16 21 24 24 26 28 27
25 24 23 21 16 13 11 10 7 5 5 1 6 9 10 10 9 9 6 8 14 15 14 15 13 13 13 11 6 9 12 11 9 9 9 10 11 8 5 3 3 2 0 2 4 1 1 6 10 11 6 2 5 6 4 4 3 4 5 4 3 4 4 1 1 3 2 1 1 3 3 4 5 4 5 6 8 8 12 14 12 14 21 25 26 28 30 29
25 24 24 22 18 13 11 10 7 6 6 1 3 5 7 8 7 9 6 4 8 11 10 9 9 11 13 11 6 10 15 14 10 7 9 13 12 7 6 5 3 2 2 3 6 4 6 10 7 3 1 5 5 7 5 3 2 2 4 5 4 7 6 2 4 4 2 2 2 4 2 4 4 4 5 4 5 5 9 14 13 12 16 22 25 27 30 31
24 24 24 24 20 14 11 9 6 6 6 3 2 1 4 7 8 10 6 1 4 7 5 4 7 11 12 8 8 13 15 14 13 10 10 14 14 6 3 5 4 2 5 5 5 4 9 13 7 2 2 7 6 6 5 5 3 0 4 7 9 10 7 7 8 6 4 3 2 4 2 4 3 4 7 3 3 5 6 10 14 15 15 17 23 27 30 31
24 24 24 24 22 16 10 7 5 7 6 5 6 4 2 6 9 10 5 3 3 5 2 2 5 6 8 8 10 12 9 9 11 13 12 13 15 8 1 2 2 3 4 5 4 2 7 9 5 4 5 7 6 5 5 5 6 1 5 7 8 9 10 11 10 6 2 2 3 4 4 3 4 3 6 4 5 6 5 6 11 16 17 17 21 28 31 32
23 24 24 23 23 19 13 9 7 8 7 6 7 7 4 6 9 9 4 3 3 3 1 4 4 4 6 9 15 12 3 4 5 9 16 14 15 11 4 2 1 3 3 3 1 2 4 3 1 2 2 4 3 3 4 5 7 2 2 7 11 12 12 12 11 4 2 1 2 2 3 0 3 4 4 2 5 6 6 7 9 14 18 19 21 26 32 33
23 24 24 23 23 21 17 12 9 8 7 7 7 8 5 6 8 5 3 2 2 1 1 3 4 5 5 9 18 11 3 6 4 6 18 16 12 10 4 5 4 4 3 5 0 5 2 1 3 4 2 2 4 4 5 7 4 5 3 9 10 12 13 11 8 3 2 3 2 2 1 1 4 5 4 2 3 6 8 9 10 13 18 21 21 24 30 34
22 24 24 23 23 21 17 13 10 8 8 7 6 7 4 6 6 2 5 1 2 1 1 3 4 6 6 7 15 10 3 8 3 6 18 16 13 10 3 6 6 3 3 4 4 6 4 5 5 6 4 4 6 6 7 7 2 2 6 9 5 6 7 6 5 4 4 3 3 5 4 2 4 4 3 3 1 6 8 8 9 14 19 22 23 23 28 33
21 23 24 24 23 20 17 13 8 7 7 5 5 6 4 4 3 3 1 1 1 1 0 3 3 4 6 5 6 7 4 7 4 6 13 12 14 12 3 3 2 2 1 1 3 6 7 8 4 3 4 6 5 3 3 5 5 6 9 9 8 7 4 4 3 4 4 2 5 6 7 4 2 4 2 1 3 5 5 5 6 13 19 23 25 25 27 32
21 22 24 25 23 20 18 11 5 5 5 3 4 5 3 2 4 4 2 2 1 1 2 1 2 2 7 5 3 3 2 3 4 6 7 5 6 6 1 1 0 3 3 4 2 5 6 4 3 3 4 3 4 2 3 3 4 7 6 5 6 5 5 4 4 4 3 3 6 4 5 4 1 4 4 4 6 5 5 6 6 11 19 24 27 28 28 31
22 22 23 24 23 20 18 11 6 7 4 2 4 5 3 2 1 2 3 3 1 2 1 2 3 1 5 3 2 3 2 2 4 6 6 3 2 3 2 3 2 3 3 2 2 5 5 3 5 4 2 3 5 2 2 6 6 6 5 5 5 2 2 2 2 1 2 5 5 2 4 3 3 6 5 5 6 5 7 9 10 13 21 26 28 30 30 30
23 23 23 22 22 18 14 10 10 9 4 4 6 5 6 3 2 4 3 2 1 3 2 1 3 3 4 2 2 3 2 3 5 5 4 3 1 4 2 3 5 4 1 3 1 4 4 6 6 3 2 1 5 4 1 2 3 4 4 4 4 3 2 1 3 1 2 4 4 3 3 1 3 2 3 6 6 6 7 9 12 14 19 25 30 32 31 30
23 24 24 21 18 15 10 9 12 10 6 6 7 5 5 2 4 3 2 3 2 2 2 3 4 3 4 3 4 4 2 4 4 5 3 2 1 4 3 2 5 4 3 2 0 1 2 3 4 2 2 1 3 4 5 4 3 2 4 6 5 4 4 3 3 2 3 4 4 3 2 2 2 2 4 6 8 8 6 6 8 11 15 20 25 28 30 31
24 23 21 15 10 9 7 11 13 10 9 9 6 5 4 4 3 1 2 3 1 3 5 6 2 3 3 4 4 3 5 5 3 5 4 3 3 4 3 4 5 5 4 2 2 1 3 2 6 3 2 2 1 2 4 6 3 1 1 4 2 3 4 3 3 4 3 1 2 2 2 3 3 3 4 6 8 9 10 9 6 4 7 12 18 23 27 30
23 19 15 7 3 4 6 11 12 10 12 10 5 2 5 4 2 3 1 2 1 2 6 6 1 3 3 3 4 4 4 3 2 4 2 3 4 4 4 4 6 7 6 4 3 1 3 2 6 5 3 1 2 2 3 4 2 0 3 2 2 2 6 4 1 0 4 2 2 1 2 3 2 2 4 6 6 8 10 10 7 5 0 7 15 20 23 27
23 18 14 6 4 5 7 9 8 11 13 8 4 3 5 3 3 4 1 4 3 2 4 4 1 2 2 1 3 5 1 0 1 3 2 2 2 4 4 3 4 7 8 6 3 2 4 1 6 4 3 2 3 8 8 6 3 3 2 4 2 2 4 4 2 2 4 0 3 2 2 3 1 1 4 6 6 6 7 7 6 6 4 3 10 17 22 25
25 18 11 7 7 6 5 6 8 12 11 5 1 4 2 2 3 1 4 5 4 2 2 1 3 2 1 1 2 4 1 1 2 4 3 1 2 3 3 1 2 4 10 7 2 0 4 2 6 4 1 2 3 7 6 7 6 4 5 4 3 2 0 1 2 1 1 1 3 3 2 2 3 3 3 3 4 5 6 6 5 6 7 4 2 9 17 22
22 14 9 6 7 5 5 6 10 11 7 3 2 3 1 2 5 6 7 7 3 1 0 3 3 1 1 1 2 3 2 3 3 3 2 2 2 2 2 2 1 1 4 6 4 0 3 4 3 6 2 2 5 4 2 3 6 5 4 3 2 3 3 1 1 2 2 2 2 3 3 2 4 4 3 4 5 4 4 5 4 4 6 6 4 1 9 17
16 8 7 6 4 4 5 8 10 8 4 2 4 3 2 3 5 7 7 6 3 2 2 4 3 2 3 2 3 3 1 3 4 3 2 1 2 1 3 2 4 1 2 5 5 1 3 4 1 5 6 3 1 1 5 5 3 3 2 1 1 2 2 2 1 2 3 3 2 1 1 4 6 3 5 5 5 4 5 4 4 4 4 4 5 3 3 10
14 6 4 6 4 5 6 7 5 3 2 1 3 2 3 3 4 7 10 8 5 6 6 6 5 5 4 3 3 2 0 1 3 3 2 2 3 1 3 4 7 5 2 6 4 2 2 3 3 1 4 2 3 6 5 8 7 5 4 4 3 3 3 3 1 2 1 3 3 3 2 6 5 3 5 5 5 5 5 5 5 4 3 3 4 3 1 6
14 4 1 4 2 7 6 2 1 1 3 2 2 3 5 5 4 6 9 6 4 7 8 7 6 6 5 3 3 2 1 0 1 3 2 3 5 3 4 9 10 6 5 3 1 1 3 4 4 0 1 2 7 7 1 5 5 5 3 3 4 3 4 5 2 3 1 2 1 3 1 5 5 3 4 4 4 5 5 5 6 7 4 3 3 4 1 5
16 7 2 2 4 7 2 2 3 1 2 3 4 5 8 6 4 5 6 3 3 4 3 3 4 4 4 3 2 1 1 1 2 3 1 2 4 3 6 14 13 7 6 3 2 0 2 4 4 2 4 4 6 6 4 3 5 5 2 1 4 2 3 5 4 3 3 2 1 2 1 5 5 3 3 3 4 4 5 4 5 6 5 5 4 4 4 2
17 9 1 4 3 9 4 1 2 3 4 4 5 6 8 6 5 6 5 2 3 2 1 3 4 4 3 2 2 2 3 2 1 2 2 2 2 2 7 15 12 5 3 4 4 3 2 1 3 3 3 4 4 4 5 4 3 2 1 1 2 3 6 4 1 3 2 3 4 4 2 6 5 3 2 2 2 3 5 5 4 4 4 6 7 5 4 1
13 7 4 5 1 6 4 2 1 2 3 4 5 6 6 5 6 9 9 6 8 6 3 5 7 5 3 1 1 2 3 3 2 2 2 1 1 1 7 12 8 4 6 9 11 8 4 2 4 5 3 3 3 3 3 2 0 0 2 2 2 4 7 4 2 4 1 3 4 4 4 5 5 4 4 4 2 2 4 5 5 5 5 6 8 8 6 2
7 3 5 7 4 2 2 4 6 3 1 4 4 4 4 3 6 11 9 7 10 9 6 7 10 7 3 2 2 2 2 3 3 2 3 2 2 1 4 9 8 10 11 13 13 8 4 2 3 6 7 7 6 7 5 3 2 1 2 3 3 3 5 6 5 3 3 3 2 4 5 2 6 5 6 7 4 3 4 6 7 6 5 6 8 8 7 4
3 2 2 5 6 5 4 6 10 6 3 3 2 3 4 4 6 8 7 5 7 7 5 5 4 3 4 3 2 2 3 1 1 1 3 4 3 1 2 1 5 12 15 12 8 5 5 1 2 6 7 7 6 7 5 3 3 4 4 4 6 5 5 6 5 4 5 6 2 7 5 3 6 6 6 7 5 5 6 9 10 7 5 5 7 7 6 5
2 1 2 3 2 2 2 7 11 8 6 5 2 2 4 7 6 7 7 8 10 8 4 2 4 5 5 3 2 1 2 3 1 2 2 3 2 3 3 4 2 8 10 6 2 4 6 2 3 5 4 6 5 4 3 3 4 4 5 6 6 7 8 7 6 6 8 7 5 7 7 7 7 6 5 7 7 6 6 7 7 4 4 4 4 4 5 6
3 2 2 2 2 4 7 11 12 8 5 5 2 2 5 6 7 7 6 5 7 8 4 2 5 7 6 3 4 2 2 2 2 3 1 2 1 3 2 1 1 2 4 3 1 2 4 2 3 4 2 4 5 5 3 4 2 2 4 6 6 10 12 9 5 6 7 5 4 5 8 8 7 5 6 6 5 6 4 2 2 2 2 2 2 2 3 4
1 1 3 4 4 8 10 11 8 4 4 4 2 2 4 4 7 10 7 3 4 7 5 3 3 3 6 7 7 4 1 3 3 3 2 3 1 2 3 3 3 2 1 2 1 2 2 2 2 4 2 4 4 2 3 4 3 1 5 5 2 9 9 4 2 3 4 2 1 4 5 7 6 5 7 6 4 5 2 2 2 2 1 1 2 2 2 3
1 3 5 4 3 5 6 7 5 2 3 3 1 3 4 4 7 10 7 3 2 5 6 6 4 0 4 7 7 3 4 3 4 6 5 4 2 5 4 4 7 5 2 2 1 2 3 2 1 5 3 3 4 2 2 3 5 2 5 6 1 6 5 3 2 4 5 3 2 4 2 6 5 3 4 5 5 5 3 5 4 2 1 1 2 2 1 3
3 5 5 1 1 3 2 4 3 1 2 2 2 4 4 5 10 10 5 4 7 12 11 8 5 2 4 7 5 9 13 10 8 8 4 1 1 4 5 7 10 9 5 4 2 1 4 4 2 4 3 4 5 3 4 5 6 3 5 3 3 5 4 3 2 1 3 5 6 3 4 6 3 3 2 3 4 5 5 4 3 3 3 2 2 3 2 2
Wind_Direction
22 20 15 14 13 15 16 18 27 34 26 6 359 359 359 1 1 3 5 6 3 0 1 4 11 21 29 39 37 40 36 23 18 200 202 191 192 200 201 202 196 192 195 186 187 194 196 196 198 206 234 256 261 266 262 240 225 201 118 83 73 192 177 186 192 171 145 123 158 169 151 138 314 249 200 149 154 154 156 148 144 148 153 163 162 160 165 169
20 17 14 12 12 14 16 20 28 29 16 2 1 1 1 3 3 6 8 9 6 4 7 12 23 31 36 47 44 36 17 5 11 145 147 163 185 198 206 207 208 213 209 194 197 194 190 191 191 208 271 279 270 244 229 205 194 185 101 102 192 215 199 182 164 170 166 147 172 184 175 172 164 286 283 149 159 154 140 128 130 130 140 156 158 160 168 172
16 14 12 10 9 11 12 13 15 11 3 359 358 356 359 1 2 6 7 10 8 5 11 19 27 30 33 36 24 10 357 350 53 93 93 123 181 203 207 208 212 217 212 200 205 190 185 187 194 239 270 276 265 220 199 189 190 202 146 119 225 210 197 190 169 172 175 152 164 182 180 189 186 236 270 159 162 156 148 143 137 135 145 155 159 164 172 176
11 11 10 7 7 9 6 3 357 347 347 348 349 349 351 352 356 1 4 9 7 6 14 22 27 30 27 19 11 1 357 4 129 87 57 44 70 208 202 207 209 206 201 200 192 180 186 200 227 266 258 262 249 202 194 190 188 187 167 205 215 167 178 207 179 171 169 156 166 164 157 193 214 250 239 157 152 174 169 164 159 153 154 159 163 169 174 180
7 7 7 4 4 5 3 352 334 326 327 331 336 337 341 344 349 353 358 5 6 6 12 22 26 21 12 2 354 346 357 33 151 92 35 8 342 232 197 195 197 195 193 192 185 180 194 222 263 273 238 251 209 177 202 195 183 121 167 265 157 160 219 216 180 170 167 161 165 154 155 187 212 240 210 164 163 193 176 171 169 163 163 165 167 171 177 182
4 3 2 2 1 1 0 345 320 308 308 317 323 328 333 335 340 346 352 358 3 5 9 20 18 8 1 349 343 339 346 358 303 302 338 347 325 262 199 188 186 191 194 185 177 179 210 246 271 252 219 235 188 182 200 188 184 119 161 22 93 173 227 190 177 174 169 170 171 154 168 189 186 193 182 183 195 185 173 170 170 166 167 168 168 172 177 182
3 0 359 359 357 356 354 344 317 300 300 306 312 320 325 328 334 340 345 351 358 2 5 13 7 358 353 344 342 335 317 315 326 319 316 334 316 258 200 185 181 194 195 180 174 181 229 274 290 263 238 244 207 209 177 171 176 135 139 62 70 167 203 185 178 176 177 181 181 162 156 160 162 180 6 202 189 176 168 167 167 166 166 167 168 172 177 182
4 0 358 356 353 350 347 340 319 300 296 298 304 313 319 324 329 333 340 345 350 356 360 2 357 351 348 342 341 334 320 327 340 12 1 337 307 239 198 182 182 195 182 167 174 195 294 341 323 293 306 328 335 156 151 148 162 119 114 117 99 142 187 191 179 179 192 194 188 164 141 96 65 26 345 156 162 164 163 161 163 165 165 168 169 173 178 181
4 0 359 354 350 346 343 337 323 303 295 295 299 306 313 320 324 329 334 338 342 347 350 347 346 345 340 337 339 335 333 341 338 8 12 358 313 202 188 178 184 187 167 165 183 303 358 349 332 344 336 317 65 133 150 131 156 134 110 122 121 117 149 175 176 174 188 189 184 156 91 82 72 39 55 148 154 159 160 158 159 162 166 170 172 175 179 183
2 360 358 354 349 345 340 335 324 309 298 293 294 300 307 315 321 324 327 332 334 337 341 339 340 340 333 333 339 339 335 345 334 272 10 14 3 183 175 168 175 174 165 180 184 28 9 348 338 355 348 301 93 88 110 90 135 124 110 108 100 90 86 112 124 64 73 77 109 149 93 56 69 52 76 151 153 157 157 158 160 162 166 171 175 180 182 186
360 358 355 354 351 344 339 334 325 314 301 293 293 297 302 310 317 319 321 326 325 329 332 330 332 331 327 325 316 298 326 346 332 271 356 18 73 153 143 150 159 161 172 189 157 29 4 356 352 4 19 157 106 57 53 114 130 118 109 95 77 79 63 58 44 22 24 8 355 78 109 34 51 50 314 159 155 157 157 160 165 168 171 171 175 183 186 188
356 356 354 352 350 345 339 332 327 319 308 298 295 297 301 307 312 315 316 318 318 321 320 322 326 324 323 315 297 294 315 331 322 258 342 39 129 143 129 146 158 165 182 198 65 48 6 350 353 357 15 130 145 77 96 128 125 116 107 98 96 83 58 51 24 22 57 44 318 5 95 17 357 359 140 159 158 160 160 163 171 175 177 175 178 184 187 190
352 354 353 350 348 344 338 331 328 324 316 304 298 300 300 302 308 311 311 312 313 312 312 315 317 319 318 307 296 303 298 296 270 232 261 82 146 155 153 164 172 187 218 259 274 80 27 328 345 347 348 115 147 138 139 135 127 130 66 104 125 47 52 85 108 225 136 160 301 335 109 353 278 300 119 159 163 163 163 167 176 180 181 180 183 186 188 192
348 350 350 349 346 342 337 332 329 327 322 312 305 303 300 303 309 309 307 308 311 307 307 309 313 317 311 300 297 289 279 275 249 216 216 191 180 195 193 181 173 175 214 262 264 59 347 312 334 344 353 124 136 131 134 136 133 156 25 70 105 56 293 140 163 198 192 199 300 15 121 193 248 285 83 162 171 168 169 174 179 182 180 182 186 186 188 192
344 345 347 347 345 342 337 332 331 330 326 319 312 305 304 311 311 307 306 306 308 306 308 308 308 311 305 300 294 266 263 257 227 162 128 206 227 232 209 208 210 185 200 239 303 283 279 299 313 350 95 128 137 129 125 153 77 88 85 321 10 78 208 295 186 194 205 231 288 36 135 198 244 249 69 162 178 175 175 179 181 181 179 181 184 184 186 190
343 341 343 344 344 341 336 332 331 333 332 326 319 311 313 317 310 306 305 304 306 307 310 306 301 306 305 297 271 232 241 231 169 150 164 190 217 237 11 260 246 230 229 235 262 269 271 292 299 279 126 137 141 119 76 25 353 7 101 289 346 98 161 324 208 218 239 253 39 41 145 194 249 200 133 148 181 180 176 179 180 178 177 176 177 180 183 186
346 341 339 341 343 341 335 331 331 336 338 330 334 335 329 325 317 314 310 306 312 316 314 302 292 294 285 277 279 258 235 223 188 171 175 180 213 279 327 297 259 229 234 240 257 269 269 276 265 216 135 134 129 99 84 349 291 301 58 85 216 129 150 180 199 222 227 269 172 55 90 216 276 164 142 134 177 179 176 176 174 173 173 172 172 176 179 183
351 344 339 337 340 340 334 330 331 339 346 339 355 360 348 339 333 339 351 337 323 319 317 309 300 300 274 257 292 298 256 223 207 183 179 196 224 267 276 284 277 230 230 237 255 259 252 282 55 84 0 84 132 119 128 226 211 198 156 137 177 144 188 203 197 188 177 124 170 121 356 262 294 4 139 139 167 174 174 173 170 169 170 171 172 173 177 181
354 348 342 336 337 339 333 328 331 339 348 350 356 0 7 357 343 13 3 336 315 307 308 300 286 278 271 273 291 298 269 218 207 197 196 208 223 252 251 256 271 218 168 161 271 240 201 340 27 300 258 182 180 173 189 199 176 177 171 147 155 163 228 207 192 181 158 136 180 185 240 261 276 292 132 139 162 164 166 170 169 168 170 173 175 176 177 179
355 350 344 338 335 336 333 327 327 326 234 344 359 9 22 7 358 346 336 322 306 296 290 290 283 273 273 282 298 297 246 211 212 206 185 206 223 229 224 232 267 193 142 150 226 234 142 98 251 233 220 191 193 200 206 192 157 154 132 141 189 176 227 199 160 180 151 142 220 193 225 263 256 268 136 146 167 160 160 167 169 170 173 177 178 179 179 179
354 350 346 340 335 333 332 322 320 311 256 338 20 41 37 17 9 322 323 318 316 310 296 299 295 282 279 286 300 279 230 212 213 211 189 208 221 220 217 211 122 8 247 165 144 33 97 184 242 238 226 213 209 199 199 184 163 175 142 152 194 187 240 290 112 172 156 140 249 176 213 258 254 269 300 147 154 181 191 177 171 176 178 179 182 183 184 182
353 350 346 342 336 333 327 317 314 292 256 355 39 50 42 28 18 333 315 303 310 311 300 302 295 283 283 286 279 233 239 241 220 214 206 206 212 212 203 156 108 224 268 94 67 8 27 246 253 249 237 246 267 227 196 205 187 190 150 146 188 177 183 349 66 162 155 77 278 196 200 250 268 276 284 213 176 199 208 199 182 181 181 181 184 187 187 184
351 349 346 343 339 333 324 312 305 273 253 350 53 52 38 28 18 353 320 276 296 304 297 291 280 277 281 279 257 209 226 245 230 215 210 206 208 208 191 132 120 186 329 110 146 85 333 244 249 252 235 227 279 277 270 276 236 183 157 135 161 166 158 262 170 156 119 71 163 176 194 271 284 276 279 239 206 202 207 211 204 188 186 186 188 191 190 189
349 348 345 343 339 335 324 308 294 267 258 269 69 68 40 15 3 346 322 265 288 297 292 279 266 269 268 269 257 212 215 230 230 214 206 205 201 198 201 186 143 173 239 188 169 175 239 248 261 308 197 187 250 281 280 270 254 213 175 148 152 178 179 153 139 129 59 8 120 102 37 302 258 234 264 247 209 214 202 206 212 201 191 189 190 194 195 195
345 345 344 342 338 336 327 307 282 263 260 259 249 135 37 354 341 341 332 317 291 287 294 270 247 254 254 255 242 216 211 225 232 220 210 208 198 180 200 189 149 220 227 185 169 203 252 256 259 314 226 191 212 247 224 167 141 261 220 200 186 177 158 112 119 114 58 320 227 120 69 296 276 224 235 223 189 226 208 200 209 204 193 188 189 194 196 198
341 341 342 341 337 336 332 315 283 273 270 257 246 231 340 329 334 339 345 47 322 277 284 191 207 233 235 226 209 199 202 232 232 218 218 217 204 192 199 180 159 251 221 171 161 204 251 254 221 207 212 185 192 223 208 139 115 176 238 211 176 143 130 130 135 127 113 233 233 150 146 276 310 264 234 214 194 222 226 214 216 208 200 193 188 192 196 197
338 337 338 339 337 336 333 319 293 288 279 256 241 238 279 318 329 331 350 35 322 268 183 181 191 206 218 204 188 176 168 220 207 211 216 213 205 204 226 250 240 261 230 101 48 248 242 271 149 176 183 166 180 235 225 126 110 222 232 148 145 136 139 151 150 145 168 138 11 107 132 24 296 281 281 219 195 226 237 227 226 216 209 203 194 194 196 197
336 335 334 335 335 333 329 315 295 293 277 256 245 241 270 320 316 324 59 49 283 235 160 196 192 199 211 196 191 185 129 164 147 213 213 207 201 195 210 229 201 223 210 102 308 271 252 227 203 190 180 192 205 213 191 123 110 243 168 128 148 150 150 156 148 127 56 65 8 276 162 85 268 280 339 50 192 243 240 227 224 217 213 209 203 197 197 199
331 332 331 331 331 328 324 314 298 290 268 255 249 238 267 326 321 19 85 69 256 244 203 180 177 200 197 181 199 210 159 166 162 209 205 206 210 202 223 238 203 201 212 143 201 258 271 260 222 166 158 209 224 219 179 138 124 218 115 96 82 106 127 127 116 90 50 48 261 237 186 157 276 284 353 45 250 252 244 236 220 214 215 213 209 202 197 199
324 328 327 326 327 323 319 315 300 279 258 251 240 230 267 330 20 70 88 273 244 263 161 170 191 188 163 148 215 231 183 186 195 182 195 206 213 213 232 252 186 119 296 315 228 248 275 279 263 160 184 200 199 202 162 151 145 112 90 80 61 45 50 50 50 71 60 331 266 233 191 156 303 284 263 187 213 226 238 248 221 209 213 214 212 207 199 197
319 321 322 321 321 317 313 311 284 256 251 243 221 211 248 338 64 96 198 247 266 307 19 211 246 147 159 165 227 224 170 205 193 166 194 215 210 211 201 269 52 60 4 346 294 293 318 299 257 250 230 156 113 101 38 39 100 103 83 89 83 26 14 29 1 32 78 255 271 252 182 144 248 261 244 236 235 225 219 227 213 200 209 213 212 209 203 199
317 315 317 316 312 307 303 293 245 230 238 191 163 164 143 41 40 166 231 300 330 259 266 225 254 224 184 189 259 218 172 197 188 169 187 196 203 213 181 192 171 50 344 304 310 336 339 269 274 308 263 117 94 125 353 10 39 83 82 86 87 38 18 23 308 331 208 246 279 272 152 149 246 242 242 258 260 253 237 233 228 210 207 210 211 209 206 202
319 316 315 310 305 301 292 268 227 215 210 143 139 132 99 82 226 220 243 317 269 234 240 212 257 237 153 128 274 225 191 221 199 181 183 152 204 257 271 201 162 116 219 223 330 348 335 303 307 340 293 212 110 130 224 340 33 90 114 113 109 116 116 215 251 279 248 251 271 251 183 216 279 262 257 273 288 292 278 264 257 239 222 216 212 209 206 205
322 320 316 308 303 296 275 233 209 202 191 158 138 105 92 135 236 226 231 255 257 278 323 329 280 228 152 185 232 190 183 248 195 154 155 125 177 263 294 242 178 130 127 155 295 164 114 321 287 197 253 286 120 149 169 152 102 95 149 132 128 148 150 184 206 191 218 239 269 271 214 187 217 248 268 291 317 330 338 324 293 269 246 227 214 207 204 205
326 326 321 312 299 283 245 205 195 188 178 162 121 85 139 202 248 209 220 256 311 344 314 300 259 163 193 244 262 205 192 230 195 134 149 166 179 215 221 219 201 149 116 139 243 182 120 262 263 248 201 150 137 181 147 109 79 329 112 97 102 174 145 134 179 174 169 205 278 275 225 204 205 248 296 335 344 354 7 8 4 321 258 225 208 204 203 204
332 338 343 335 246 230 201 193 188 177 174 158 102 102 199 212 218 179 222 311 315 324 327 324 51 132 241 278 314 273 202 203 184 137 175 205 185 210 218 209 191 165 140 149 211 220 77 293 295 335 2 56 128 131 87 83 137 9 52 102 218 166 118 116 185 58 75 102 268 269 253 298 328 294 325 0 358 353 1 4 19 36 257 204 201 203 205 206
341 353 8 38 145 152 161 180 180 176 175 149 113 202 211 220 204 184 336 344 307 313 20 2 326 180 230 259 313 300 259 8 213 166 213 245 194 221 230 203 166 175 178 167 192 199 130 12 310 349 22 333 86 87 58 46 111 123 132 191 199 65 77 101 123 6 37 136 273 316 253 282 355 277 315 0 1 341 345 351 6 30 43 194 206 207 210 210
343 349 12 66 126 127 129 160 169 171 165 127 138 237 217 220 233 240 348 341 323 345 65 208 251 223 182 177 287 300 315 220 227 184 184 212 209 214 199 153 99 195 203 182 134 161 120 82 303 292 177 289 29 73 53 17 43 109 157 153 104 93 24 40 102 141 62 202 283 322 306 245 191 224 287 337 331 316 323 340 359 17 24 29 221 217 214 212
341 346 16 62 129 113 87 137 161 158 141 100 229 252 241 246 283 308 330 335 319 320 278 223 230 308 324 198 236 271 240 194 203 182 165 168 186 195 197 180 88 299 229 170 138 92 96 107 277 297 318 338 7 49 113 4 25 57 78 57 59 123 158 143 121 156 156 168 248 310 335 272 225 218 198 228 265 279 294 316 324 335 4 32 51 216 217 211
346 355 15 39 120 110 89 139 154 143 121 148 199 233 273 268 284 287 305 321 290 250 266 228 224 281 284 267 248 256 228 174 175 176 191 170 141 222 254 185 125 70 19 86 104 83 57 94 182 300 337 23 32 208 178 170 130 81 61 24 0 73 121 146 82 93 129 142 178 208 295 270 252 206 174 212 243 246 249 270 280 299 349 24 47 63 214 214
3 11 11 31 96 131 126 146 154 121 114 209 209 224 275 271 276 284 289 289 259 241 244 240 252 254 246 270 271 252 217 141 162 164 192 190 145 190 239 169 149 158 76 53 54 84 98 94 127 286 0 48 244 252 203 177 164 148 156 180 166 128 124 126 0 310 118 131 166 160 214 267 261 192 179 204 218 234 245 251 272 299 341 359 24 61 192 222
7 8 81 34 133 156 136 167 267 112 153 236 248 242 277 280 270 287 293 287 250 238 237 237 244 235 221 230 236 215 145 84 182 174 196 204 176 176 198 172 160 146 110 89 312 164 130 99 95 214 286 233 265 283 203 156 141 120 129 155 145 128 118 127 189 236 116 90 137 123 172 271 266 208 190 201 211 238 253 255 283 313 331 326 355 47 61 234
354 345 121 72 225 201 162 328 323 8 234 277 298 287 290 284 259 279 295 298 265 243 231 246 249 238 234 222 196 191 167 160 196 189 193 205 196 213 176 155 144 114 96 122 244 211 90 84 78 327 307 313 309 324 14 59 79 84 59 118 136 143 129 143 174 165 133 153 141 86 274 268 280 260 213 216 230 250 256 253 283 307 315 306 311 19 45 256
346 336 50 60 229 218 221 318 309 307 302 313 325 313 301 280 253 266 268 245 259 248 227 273 252 231 240 204 155 222 205 157 204 196 147 137 191 225 165 151 139 122 147 169 179 159 132 99 92 70 3 355 352 345 342 351 51 98 249 224 158 117 99 107 110 83 100 197 153 123 234 255 281 308 288 251 228 251 247 231 241 267 288 301 301 328 6 333
350 334 309 2 59 196 190 85 41 289 316 342 330 313 308 291 271 272 262 246 253 246 233 271 264 250 249 190 158 261 202 162 199 203 134 123 269 235 187 182 166 143 171 168 155 144 135 138 118 111 135 171 181 218 257 257 204 216 241 225 196 129 119 134 119 77 75 215 150 147 217 262 294 304 295 283 217 208 230 216 220 243 264 288 294 310 335 330
9 6 315 336 14 103 120 67 44 20 340 358 336 296 301 308 295 291 281 255 254 250 235 259 270 271 267 188 184 271 244 191 194 174 142 170 251 263 191 198 175 141 145 149 144 128 91 106 127 136 164 180 186 210 219 174 147 246 238 227 216 156 123 116 110 129 189 171 178 216 204 258 295 273 262 273 252 210 214 211 218 236 256 276 281 293 320 337
32 73 0 341 343 352 12 30 25 13 333 343 315 267 302 318 312 317 316 293 287 286 254 245 276 295 267 229 178 237 279 283 166 175 170 180 214 0 64 160 151 144 143 140 141 114 81 102 167 145 178 201 191 206 209 156 185 209 199 223 221 184 136 125 145 192 162 124 245 250 189 182 269 256 239 256 249 219 218 221 227 239 254 267 274 283 316 350
350 13 32 13 320 314 352 345 344 339 328 327 284 255 333 331 332 340 328 315 321 326 309 296 2 345 292 256 157 198 323 357 319 255 202 174 141 70 46 1 40 141 139 127 147 119 99 144 195 151 198 233 219 232 221 171 212 215 197 224 213 178 174 180 187 186 152 147 230 233 172 186 242 250 237 242 236 229 234 230 231 238 243 253 275 296 332 10
321 307 318 350 297 270 285 302 313 322 327 324 323 3 352 338 337 333 317 314 327 335 358 21 343 346 358 49 98 111 358 356 296 289 257 168 120 100 115 350 8 133 128 104 104 104 101 159 190 141 180 258 254 258 230 180 215 256 244 246 205 182 194 199 185 174 167 182 224 190 179 211 232 227 242 259 253 247 256 245 225 227 237 278 336 347 354 31
343 311 313 340 316 289 288 295 309 333 337 328 332 335 329 335 341 328 312 307 324 328 351 0 321 12 39 50 78 91 264 218 216 253 195 129 91 145 158 185 185 150 105 138 126 32 84 178 176 106 82 298 285 254 190 154 138 231 290 300 198 183 199 201 148 158 170 235 269 136 176 243 250 217 235 264 262 247 260 75 111 173 206 342 32 46 22 34
260 270 299 338 325 290 290 300 313 352 342 335 347 333 333 332 332 325 303 270 331 336 332 325 309 29 44 34 54 37 313 249 221 248 220 162 195 211 201 198 177 158 138 169 161 56 101 140 30 80 94 273 292 343 356 58 78 44 325 334 85 162 185 198 190 182 174 166 113 95 165 252 254 213 230 268 273 274 328 48 83 129 150 80 88 96 21 352
269 249 242 217 285 285 305 321 321 312 276 292 339 344 334 313 321 328 315 303 351 4 4 357 347 25 62 37 8 325 318 305 284 284 268 201 275 240 227 210 180 163 159 153 134 100 122 134 147 105 116 251 281 340 355 24 41 3 307 286 166 152 148 134 114 165 169 149 141 156 224 236 213 158 193 273 284 294 330 20 93 140 138 125 138 143 157 276